[[{"header":{"parameterUnit":"m.s-1","parameterCategory":1,"la1":30.2991,"la2":30.254,"lo1":-89.0895,"lo2":-89.0444,"dy":0.0017,"dx":0.0017,"nx":28,"ny":28,"refTime":"2024-06-30T09:00:00:Z","depth":0,"parameterNumber":2,"parameterNumberName":"U-component_of_WINDS"},"data":[0,0,0,0,0,0,0,0,0,0,0,0,0,0,0,0,0,0,0,0,0,0,0,0,0,0,0,0,0,0,0,0,0,0,0,0,0,0,0,0,0,0,0,0,0,0,0,0,0,0,0,0,0,0,0,0,0,0,0.3284,0.3286,0,0.3435,0.3437,0.3439,0.3525,0.3525,0.3526,0.3526,0.3681,0.3684,0.3688,0,0,0,0,0,0,0,0,0,0,0,0,0,0.3071,0.3074,0.3284,0.3286,0.3288,0.3435,0.3437,0.3439,0.3525,0.3525,0.3526,0.3526,0.3679,0.3684,0.3688,0,0,0,0,0,0,0,0,0,0,0,0,0,0.3186,0.3075,0.3284,0.3348,0.3356,0.3435,0.3437,0.344,0.3525,0.3525,0.3526,0.3526,0.3678,0.3683,0.3689,0.3715,0,0,0.3707,0.3709,0,0,0,0,0,0,0,0,0.318,0.3194,0.3337,0.3344,0.3352,0.3462,0.3419,0.3532,0.3525,0.3461,0.3526,0.3526,0.3607,0.3619,0.3646,0.3722,0.3729,0.3707,0.3711,0.3713,0.3715,0,0,0,0,0,0,0,0.3172,0.3188,0.3344,0.3339,0.3348,0.337,0.3387,0.344,0.353,0.3466,0.3473,0.349,0.3612,0.364,0.365,0.3731,0.3707,0.3712,0.3716,0.3718,0.3838,0.3837,0,0,0,0,0,0,0.3153,0.3181,0.3339,0.3348,0.3266,0.3374,0.3393,0.3426,0.3529,0.3545,0.3489,0.3493,0.363,0.3644,0.3656,0.3695,0.3713,0.3718,0.3722,0.3838,0.3838,0.3837,0,0,0,0,0,0,0.3148,0.3167,0.3333,0.3267,0.3289,0.3377,0.3414,0.3429,0.3458,0.3546,0.3563,0.3502,0.3631,0.3648,0.37,0.3701,0.3721,0.3726,0.3838,0.3838,0.3838,0.377,0,0,0,0,0,0,0.3142,0.3164,0.3175,0.3266,0.3293,0.3374,0.3414,0.3432,0.3468,0.3474,0.3563,0.3578,0.3633,0.3691,0.3706,0.3709,0.3731,0.3839,0.3838,0.3838,0.3773,0.3767,0.3763,0,0,0,0,0,0.3134,0.315,0.3175,0.3194,0.3308,0.3374,0.3389,0.3452,0.3467,0.3479,0.3536,0.3575,0.3698,0.3696,0.3713,0.3718,0.3839,0.3838,0.3838,0.3775,0.3768,0.3763,0,0,0,0,0,0,0.3056,0.3163,0.3192,0.3238,0.3296,0.3388,0.3405,0.3443,0.3498,0.3502,0.3578,0.3597,0.3642,0.3685,0.368,0.3749,0.3773,0.3776,0.3719,0.3714,0.3709,0.3698,0.3735,0,0,0,0,0,0.3044,0.3089,0.318,0.3211,0.3239,0.3316,0.3348,0.3391,0.3455,0.348,0.3541,0.3601,0.3653,0.3686,0.3739,0.3779,0.38,0.3792,0.3787,0.3782,0.3784,0.3809,0.3807,0.3835,0.3836,0.3836,0,0,0.302,0.3084,0.3107,0.3197,0.3248,0.3292,0.3337,0.3382,0.3416,0.3487,0.354,0.3586,0.3658,0.3705,0.3728,0.3742,0.3781,0.3782,0.3777,0.3782,0.3809,0.3806,0.3803,0.3835,0.3835,0.3835,0,0,0.2999,0.3051,0.3084,0.3134,0.3209,0.3261,0.3269,0.3355,0.3389,0.3444,0.3498,0.3539,0.3628,0.3677,0.3714,0.3712,0.3751,0.3728,0.3702,0.3726,0.3724,0.3723,0.3723,0.3722,0.3729,0.3729,0.3729,0,0.2959,0.3029,0.3096,0.3138,0.3177,0.3243,0.3276,0.3321,0.341,0.3435,0.345,0.3563,0.3616,0.3675,0.3675,0.3702,0.3714,0.3718,0.3719,0.3718,0.3718,0.3719,0.3718,0.3725,0.3726,0.3726,0.3727,0,0.2977,0.3024,0.3041,0.3126,0.3166,0.3204,0.3277,0.3309,0.3349,0.34,0.3454,0.3521,0.3589,0.3606,0.3645,0.3671,0.3678,0.3705,0.373,0.371,0.3713,0.3713,0.3721,0.3722,0.3723,0.3724,0,0,0.291,0.3032,0.3037,0.3077,0.3166,0.3204,0.3245,0.3312,0.3338,0.3398,0.3434,0.3508,0.3534,0.3575,0.3621,0.3642,0.3637,0.3667,0.3669,0.3659,0.3671,0.365,0.3649,0.3663,0.3664,0.3664,0.3665,0,0.2903,0.2979,0.3041,0.3095,0.314,0.3204,0.324,0.3298,0.3346,0.3392,0.3445,0.3496,0.3526,0.3552,0.3575,0.3632,0.364,0.3633,0.3699,0.37,0.3679,0.365,0.3629,0.3626,0.3666,0.3666,0.3666,0,0.2904,0.2961,0.3019,0.3104,0.3125,0.3156,0.3223,0.3266,0.3333,0.3367,0.3413,0.3461,0.3508,0.3528,0.3594,0.3588,0.3618,0.3651,0.3652,0.3661,0.3682,0.3658,0.3627,0.3626,0.3668,0.3668,0.3668,0,0.285,0.2942,0.2989,0.302,0.3121,0.3141,0.3184,0.3252,0.3288,0.3347,0.3371,0.3434,0.3468,0.3516,0.3579,0.3588,0.3639,0.3664,0.3668,0.3667,0.3676,0.3675,0.3649,0.3695,0.3695,0.3695,0.3695,0,0.2835,0.2868,0.2966,0.2995,0.3034,0.3105,0.3142,0.319,0.3251,0.3291,0.3349,0.3385,0.3467,0.3513,0.3563,0.361,0.3625,0.3654,0.3667,0.3649,0.3645,0.367,0.3672,0.3695,0.3695,0.3695,0.3695,0,0.2781,0.2848,0.2904,0.2994,0.3018,0.3043,0.3121,0.3151,0.3203,0.3252,0.3268,0.3349,0.3406,0.3474,0.3553,0.3587,0.363,0.3649,0.3607,0.3615,0.3615,0.3614,0.3604,0.3607,0.365,0.3649,0.3649,0,0.2767,0.2795,0.2888,0.2919,0.296,0.3009,0.3047,0.3118,0.3154,0.3234,0.3255,0.3317,0.337,0.3459,0.3525,0.3586,0.3608,0.36,0.3617,0.3598,0.3608,0.3606,0.3609,0.3595,0.3594,0.3594,0.3593,0,0.2736,0.2768,0.282,0.2883,0.2927,0.298,0.3036,0.3058,0.3141,0.3179,0.3239,0.328,0.3361,0.3422,0.3492,0.3536,0.3578,0.3587,0.3592,0.3574,0.3548,0.3562,0.3595,0.3587,0.3588,0.3588,0.3589,0.3589,0.2703,0.273,0.28,0.2856,0.2906,0.2957,0.2991,0.3047,0.3097,0.3169,0.3208,0.3267,0.3335,0.3433,0.3476,0.3523,0.3538,0.3544,0.3545,0.3546,0.3541,0.354,0.3536,0.3536,0.3536,0.3537,0.3537,0,0.2674,0.2723,0.2774,0.2851,0.2895,0.2931,0.2995,0.303,0.3081,0.3141,0.3192,0.3261,0.332,0.3391,0.3455,0.3479,0.35,0.3494,0.3493,0.3503,0.3524,0.3514,0.3476,0.3476,0.3476,0.3476,0.3476,0.3476,0.2665,0.2713,0.2754,0.2828,0.2877,0.2934,0.2968,0.3016,0.3064,0.3138,0.3188,0.3234,0.3298,0.3368,0.3424,0.3444,0.3465,0.3452,0.3477,0.3496,0.3501,0.3506,0.3497,0.3456,0.3456,0.3453,0.3453,0.3453]},{"header":{"parameterUnit":"m.s-1","parameterCategory":1,"la1":30.2991,"la2":30.254,"lo1":-89.0895,"lo2":-89.0444,"dy":0.0017,"dx":0.0017,"nx":28,"ny":28,"refTime":"2024-06-30T09:00:00:Z","depth":0,"parameterNumber":3,"parameterNumberName":"V-component_of_WINDS"},"data":[0,0,0,0,0,0,0,0,0,0,0,0,0,0,0,0,0,0,0,0,0,0,0,0,0,0,0,0,0,0,0,0,0,0,0,0,0,0,0,0,0,0,0,0,0,0,0,0,0,0,0,0,0,0,0,0,0,0,-0.0822,-0.0821,0,-0.0782,-0.0781,-0.0781,-0.0805,-0.0807,-0.0808,-0.0809,-0.0766,-0.0763,-0.0761,0,0,0,0,0,0,0,0,0,0,0,0,0,-0.0916,-0.0914,-0.0822,-0.0821,-0.0821,-0.0782,-0.0781,-0.0781,-0.0805,-0.0807,-0.0808,-0.0809,-0.0766,-0.0764,-0.0761,0,0,0,0,0,0,0,0,0,0,0,0,0,-0.0875,-0.0914,-0.0822,-0.0828,-0.0828,-0.0782,-0.0781,-0.0781,-0.0805,-0.0807,-0.0808,-0.081,-0.0767,-0.0764,-0.0761,-0.0705,0,0,-0.075,-0.0749,0,0,0,0,0,0,0,0,-0.0878,-0.0872,-0.0828,-0.0828,-0.0828,-0.0801,-0.0799,-0.0755,-0.0805,-0.0814,-0.0809,-0.0811,-0.0776,-0.0772,-0.076,-0.0703,-0.0701,-0.075,-0.0748,-0.0747,-0.0746,0,0,0,0,0,0,0,-0.0881,-0.0874,-0.0806,-0.0827,-0.0827,-0.0832,-0.0828,-0.0791,-0.0785,-0.0813,-0.0815,-0.081,-0.0776,-0.0764,-0.076,-0.07,-0.075,-0.0747,-0.0745,-0.0744,-0.0595,-0.0593,0,0,0,0,0,0,-0.0883,-0.0876,-0.0807,-0.0805,-0.0858,-0.0829,-0.0825,-0.0807,-0.0786,-0.0784,-0.0808,-0.0811,-0.0768,-0.0763,-0.0758,-0.069,-0.0747,-0.0744,-0.0742,-0.0596,-0.0594,-0.0592,0,0,0,0,0,0,-0.0885,-0.0877,-0.0809,-0.0841,-0.0833,-0.0826,-0.0806,-0.0806,-0.0793,-0.0782,-0.0781,-0.0797,-0.077,-0.0763,-0.0718,-0.0689,-0.0742,-0.0739,-0.0599,-0.0596,-0.0593,-0.0555,0,0,0,0,0,0,-0.0888,-0.0877,-0.0857,-0.084,-0.0831,-0.077,-0.0804,-0.0804,-0.0788,-0.0791,-0.0771,-0.0769,-0.077,-0.0723,-0.0715,-0.0685,-0.0736,-0.0601,-0.0597,-0.0594,-0.0559,-0.0551,-0.0544,0,0,0,0,0,-0.0891,-0.0847,-0.0855,-0.0847,-0.0805,-0.0768,-0.0762,-0.0765,-0.0785,-0.0764,-0.0757,-0.077,-0.0694,-0.0718,-0.0709,-0.0678,-0.0603,-0.0598,-0.0594,-0.0562,-0.0552,-0.0545,0,0,0,0,0,0,-0.0859,-0.0845,-0.0854,-0.0804,-0.0787,-0.0772,-0.0745,-0.0755,-0.0732,-0.0736,-0.074,-0.0735,-0.0688,-0.0679,-0.0706,-0.0623,-0.0652,-0.0645,-0.063,-0.0621,-0.0614,-0.0616,-0.0734,0,0,0,0,0,-0.0846,-0.0818,-0.0808,-0.0764,-0.0755,-0.0752,-0.0736,-0.074,-0.0722,-0.0715,-0.0705,-0.0686,-0.0658,-0.064,-0.0613,-0.0558,-0.0554,-0.0533,-0.0526,-0.052,-0.0514,-0.0483,-0.0473,-0.0578,-0.0578,-0.0578,0,0,-0.0819,-0.0808,-0.079,-0.0757,-0.0745,-0.0715,-0.0745,-0.0713,-0.069,-0.071,-0.0666,-0.0658,-0.0638,-0.0588,-0.0565,-0.0579,-0.0484,-0.0515,-0.051,-0.0507,-0.0477,-0.0467,-0.0458,-0.0575,-0.0575,-0.0576,0,0,-0.0754,-0.0744,-0.0705,-0.0693,-0.0674,-0.0672,-0.0663,-0.0647,-0.0642,-0.06,-0.0613,-0.0587,-0.0539,-0.0524,-0.051,-0.044,-0.045,-0.0431,-0.0393,-0.0363,-0.0355,-0.0348,-0.0321,-0.0312,-0.0426,-0.0426,-0.0425,0,-0.0722,-0.0678,-0.0684,-0.065,-0.0635,-0.0653,-0.0614,-0.0601,-0.0574,-0.0563,-0.0579,-0.0519,-0.0507,-0.0453,-0.0436,-0.0425,-0.0413,-0.0432,-0.0356,-0.0349,-0.0342,-0.0316,-0.0306,-0.0423,-0.0423,-0.0424,-0.0424,0,-0.0639,-0.0609,-0.058,-0.0555,-0.0536,-0.05,-0.05,-0.0481,-0.0487,-0.0483,-0.0438,-0.0425,-0.0396,-0.0384,-0.0389,-0.033,-0.0339,-0.0356,-0.0384,-0.0329,-0.0305,-0.0296,-0.042,-0.0421,-0.0421,-0.0422,0,0,-0.055,-0.053,-0.0519,-0.0507,-0.0488,-0.0464,-0.0429,-0.0401,-0.0384,-0.0366,-0.0335,-0.0294,-0.031,-0.0294,-0.0298,-0.0272,-0.0215,-0.0291,-0.0291,-0.0276,-0.0148,-0.0133,-0.0122,-0.0224,-0.0222,-0.022,-0.0149,0,-0.0482,-0.0421,-0.0426,-0.0367,-0.0338,-0.0355,-0.0324,-0.0309,-0.0305,-0.0279,-0.0275,-0.0245,-0.0269,-0.0259,-0.0234,-0.0227,-0.0189,-0.0233,-0.0193,-0.0192,-0.0195,-0.011,-0.0095,-0.0028,-0.014,-0.0138,-0.0137,0,-0.0394,-0.0373,-0.0312,-0.0297,-0.0285,-0.0257,-0.0232,-0.0208,-0.0191,-0.019,-0.0173,-0.0181,-0.0144,-0.0176,-0.0125,-0.0154,-0.0139,-0.0133,-0.013,-0.0125,-0.0159,-0.01,-0.0007,0.0004,-0.0123,-0.0124,-0.0125,0,-0.0333,-0.0289,-0.0247,-0.0237,-0.0219,-0.0199,-0.019,-0.0175,-0.0158,-0.0137,-0.0126,-0.01,-0.0085,-0.0065,-0.0065,-0.0089,-0.0013,-0.0045,-0.0009,-0.0009,0.001,0.0009,0.0109,0.0016,0.0016,0.0015,0.0015,0,-0.0255,-0.0216,-0.0219,-0.0192,-0.0149,-0.0156,-0.0113,-0.0107,-0.0093,-0.0065,-0.0079,-0.0052,-0.0057,-0.0029,-0.003,0.0013,0.0019,0.0023,0.0022,0.0025,0.0025,0.0038,0.0034,0.0018,0.0017,0.0017,0.0016,0,-0.0177,-0.0178,-0.0133,-0.0121,-0.0117,-0.0085,-0.0074,-0.0049,-0.0047,-0.0011,-0.0003,0.0001,0.0032,0.0032,0.0068,0.0067,0.0121,0.0114,0.0115,0.0115,0.0151,0.0149,0.0265,0.028,0.0174,0.0175,0.0176,0,-0.0126,-0.0097,-0.0082,-0.0065,-0.0055,-0.0027,-0.001,-0.0016,0.0002,0.0024,0.0047,0.0076,0.01,0.015,0.0157,0.0184,0.0179,0.0218,0.0184,0.0186,0.0183,0.0182,0.0186,0.0226,0.0227,0.0228,0.0229,0,-0.0035,-0.0037,-0.0012,0.0012,0.0032,0.0051,0.0069,0.0084,0.008,0.0102,0.0133,0.0151,0.0186,0.0217,0.0243,0.0252,0.0241,0.0239,0.0249,0.0254,0.0254,0.0256,0.0136,0.0237,0.0236,0.0235,0.0235,0.0235,0.0033,0.0058,0.0073,0.0101,0.0113,0.0129,0.0154,0.0159,0.0184,0.0213,0.0207,0.0243,0.0259,0.0292,0.0304,0.0332,0.0318,0.0333,0.0337,0.0341,0.0346,0.0247,0.0336,0.0336,0.0336,0.0335,0.0335,0,0.0126,0.0134,0.0159,0.0184,0.0206,0.019,0.0209,0.0229,0.026,0.0275,0.0298,0.0334,0.0363,0.0371,0.0399,0.042,0.0415,0.0427,0.0427,0.043,0.0355,0.0345,0.0431,0.0431,0.0431,0.0431,0.0431,0.043,0.0177,0.022,0.0219,0.0268,0.0276,0.031,0.0322,0.0337,0.035,0.039,0.0414,0.0418,0.0431,0.0459,0.0485,0.0487,0.0499,0.0514,0.0514,0.0444,0.0435,0.0426,0.0416,0.0516,0.0516,0.0587,0.0587,0.0588]}]]